MDT,Max TemperatureF,Mean TemperatureF,Min TemperatureF,Max Dew PointF,MeanDew PointF,Min DewpointF,Max Humidity, Mean Humidity, Min Humidity, Max Sea Level PressureIn, Mean Sea Level PressureIn, Min Sea Level PressureIn, Max VisibilityMiles, Mean VisibilityMiles, Min VisibilityMiles, Max Wind SpeedMPH, Mean Wind SpeedMPH, Max Gust SpeedMPH,PrecipitationIn, CloudCover, Events, WindDirDegrees
2012-6-1,93,74,55,34,28,20,33,21,9,29.84,29.76,29.65,10,10,10,21,4,24,0.00,0,,285
2012-6-2,92,77,62,41,32,25,37,24,10,29.84,29.68,29.62,10,10,10,33,9,38,T,0,Thunderstorm,143
2012-6-3,97,79,60,37,25,13,39,22,5,29.95,29.72,29.66,10,10,10,16,4,21,0.00,0,,185
2012-6-4,100,81,61,33,24,15,18,12,6,29.84,29.67,29.57,10,10,10,29,10,35,0.00,0,,139
2012-6-5,94,78,62,36,22,4,28,16,4,29.69,29.56,29.42,10,9,2,36,18,49,0.00,0,,188
2012-6-6,84,65,46,23,15,9,26,17,7,29.88,29.76,29.68,10,10,10,21,7,29,0.00,0,,283
2012-6-7,87,72,56,21,15,8,23,15,6,29.88,29.79,29.72,10,10,10,18,7,25,0.00,0,,274
2012-6-8,94,73,52,16,12,8,17,11,4,29.90,29.67,29.49,10,10,10,30,11,37,0.00,0,,213
2012-6-9,92,76,59,23,20,16,17,12,7,29.70,29.50,29.34,10,10,10,32,20,39,0.00,0,,224
2012-6-10,76,63,49,16,5,-5,24,14,4,29.96,29.90,29.67,10,10,10,30,10,37,0.00,0,,283
2012-6-11,84,66,48,19,9,0,24,15,5,30.16,29.99,29.91,10,10,10,15,6,25,0.00,0,,317
2012-6-12,92,69,45,8,3,-1,13,8,3,30.09,29.88,29.73,10,10,10,20,3,25,0.00,0,,251
2012-6-13,96,74,51,12,3,-6,14,8,2,29.91,29.67,29.54,10,10,10,21,6,28,0.00,0,,221
2012-6-14,96,75,53,10,5,-1,10,7,3,29.68,29.61,29.55,10,10,10,21,5,26,0.00,0,,247
2012-6-15,96,80,63,26,11,4,16,10,3,29.83,29.66,29.60,10,10,10,22,6,26,0.00,0,,214
2012-6-16,95,81,66,33,26,16,24,15,6,29.89,29.81,29.74,10,10,10,22,7,29,0.00,0,,298
2012-6-17,100,80,59,23,17,5,19,12,4,29.85,29.74,29.58,10,10,10,26,10,37,0.00,0,,268
2012-6-18,98,79,60,14,9,4,9,7,4,29.65,29.55,29.41,10,10,10,22,9,32,0.00,0,,214
2012-6-19,98,79,59,15,10,5,11,8,4,29.72,29.54,29.46,10,10,10,24,9,30,0.00,0,,279
2012-6-20,87,73,59,17,6,-8,16,10,3,30.03,29.80,29.60,10,10,10,20,7,29,0.00,0,,289
2012-6-21,99,75,51,11,5,-2,12,8,3,29.93,29.81,29.64,10,10,10,12,3,18,0.00,0,,228
2012-6-22,99,83,67,25,14,7,16,10,4,29.91,29.63,29.49,10,10,10,30,13,45,0.00,0,,196
2012-6-23,100,81,62,17,12,6,13,8,3,29.85,29.63,29.55,10,10,9,35,13,40,0.00,0,,234
2012-6-24,102,82,62,29,22,16,15,11,7,29.83,29.76,29.69,10,10,10,23,6,37,0.00,0,,242
2012-6-25,102,85,67,38,29,22,20,14,8,29.81,29.72,29.63,10,10,10,35,11,40,0.00,0,,223
2012-6-26,99,85,71,45,36,31,27,19,11,29.92,29.68,29.58,10,10,8,30,14,40,0.00,0,,215
2012-6-27,98,87,75,49,38,27,36,22,8,29.81,29.74,29.65,10,10,10,29,12,36,0.00,1,,199
2012-6-28,100,85,70,46,37,30,35,22,9,29.98,29.84,29.76,10,10,10,24,9,37,0.00,0,,211
2012-6-29,101,85,69,34,31,21,23,15,6,30.03,29.80,29.68,10,10,10,24,9,31,0.00,0,,224
2012-6-30,101,84,66,27,17,-1,19,11,2,29.80,29.71,29.62,10,10,10,17,6,24,0.00,0,,248